This is the latest recevied weather packets stored in our database for station/object AJ5AG. If no packets are shown the sender has not sent any weather packets the latest 1 day(s).
| Time | Temp. | Humidity | Pressure | Rain* | Wind** | Luminosity | Snow |
|---|---|---|---|---|---|---|---|
| 1778031283 | 26.11° C | 81% | 1009.7 hPa | 0 mm | 0 m/s | 0 W/m² | - |
| 1778030979 | 26.11° C | 80% | 1009.6 hPa | 0 mm | 0 m/s | 0 W/m² | - |
| 1778030676 | 26.11° C | 80% | 1009.7 hPa | 0 mm | 0 m/s | 0 W/m² | - |
| 1778030372 | 26.11° C | 80% | 1009.5 hPa | 0 mm | 0 m/s | 0 W/m² | - |
| 1778030070 | 26.11° C | 80% | 1009.5 hPa | 0 mm | 0 m/s | 0 W/m² | - |
| 1778029767 | 26.67° C | 79% | 1009.2 hPa | 0 mm | 0 m/s | 1 W/m² | - |
| 1778029466 | 26.67° C | 79% | 1009.4 hPa | 0 mm | 0 m/s | 1 W/m² | - |
| 1778029161 | 26.67° C | 79% | 1009.3 hPa | 0 mm | 0 m/s | 2 W/m² | - |
| 1778028859 | 26.67° C | 78% | 1009.2 hPa | 0 mm | 0 m/s | 4 W/m² | - |
| 1778028554 | 26.67° C | 78% | 1009.1 hPa | 0 mm | 0 m/s | 6 W/m² | - |
| 1778028253 | 26.67° C | 78% | 1009.1 hPa | 0 mm | 0 m/s | 8 W/m² | - |
| 1778027948 | 26.67° C | 78% | 1009.2 hPa | 0 mm | 0 m/s | 10 W/m² | - |
| 1778027644 | 26.67° C | 78% | 1008.9 hPa | 0 mm | 0 m/s | 12 W/m² | - |
| 1778027341 | 27.22° C | 77% | 1009.1 hPa | 0 mm | 0 m/s | 14 W/m² | - |
| 1778027037 | 27.22° C | 77% | 1009.1 hPa | 0 mm | 0 m/s | 14 W/m² | - |
| 1778026733 | 27.22° C | 77% | 1008.8 hPa | 0 mm | 0 m/s | 23 W/m² | - |
| 1778026430 | 27.22° C | 77% | 1009.1 hPa | 0 mm | 0 m/s | 33 W/m² | - |
| 1778026133 | 27.22° C | 76% | 1009 hPa | 0 mm | 0 m/s | 34 W/m² | - |
| 1778025825 | 27.78° C | 76% | 1009 hPa | 0 mm | 0 m/s | 27 W/m² | - |
| 1778025521 | 27.78° C | 76% | 1009.2 hPa | 0 mm | 0 m/s | 36 W/m² | - |
| 1778025219 | 27.78° C | 75% | 1009.1 hPa | 0 mm | 0 m/s | 36 W/m² | - |
| 1778024916 | 27.78° C | 75% | 1009.1 hPa | 0 mm | 0 m/s | 55 W/m² | - |
| 1778024614 | 27.78° C | 75% | 1009 hPa | 0 mm | 0.45 m/s, 105° | 70 W/m² | - |
| 1778024316 | 27.78° C | 75% | 1009.1 hPa | 0 mm | 0 m/s | 63 W/m² | - |
| 1778024008 | 27.78° C | 74% | 1008.9 hPa | 0 mm | 0 m/s | 42 W/m² | - |
* Rain latest hour (hover to see other rain measurements)
** Current wind speed in m/s (hover to see current wind gust speed)